Location: Spring Creek
(38.2870°N, 100.2160°W)
Time: 23:58:08
(UTC+00:00)

Cosmos 1452 Rocket - Pass Details

Date: 08 May 2021
Orbit: 767 x 774 km, 74.1° (Epoch: 21 June)

Event Time Altitude Azimuth Distance (km) Brightness Sun altitude
Rises 10:39:46 0° 186° (S) 3,227 6.4 -10.6°
Reaches altitude 10° 10:42:10 10° 183° (S) 2,306 5.7 -10.2°
Maximum altitude 10:47:18 59° 104° (ESE) 890 4.1 -9.4°
Drops below altitude 10° 10:52:29 10° 26° (NNE) 2,325 7.0 -8.5°
Sets 10:54:53 0° 23° (NNE) 3,257 7.7 -8.1°
